Volver al catálogo

OPS 4682 DEB

ActivoPO
NORAD 38428·DEBRIS·🇺🇸 United States

Lanzado Apr 3, 1965 desde Vandenberg Space Force Base

Loading…

Próximos Pases (próximas 24 horas)

TLE

EnvejeciendoSource: Space-Track

Época: Sep 9, 2026, 07:56 UTC

1 38428U 65027EH  26252.33121908  .00000616  00000-0  20856-2 0  9995
2 38428  90.2564  15.2913 0044703 193.6596 166.3319 12.97526559608825

Sigue OPS 4682 DEB en tiempo real con AllMySat

Download on the App Store